Epoch 2024 Oct. 17.0 TT = JDT 2460600.5 T 2025 Feb. 15.40950 TT Rudenko q 2.0751565 (2000.0) P Q n 0.07410897 Peri. 32.42911 +0.30121901 -0.94630026 a 5.6133511 Node 40.38530 +0.83166486 +0.20048680 e 0.6303177 Incl. 10.43937 +0.46647687 +0.25361558 P 13.3 From 141 observations 2011 Oct. 24-2024 Oct. 10, mean residual 0".7.
m1 = 12 + 5 logΔ + 20 log r